Weather History for Truth Or Consequences, NM

Change the Weather History Date:

Sunday, April 29, 2012

  Actual Average Record
Temperature  
Mean Temperature 68 °F -  
Max Temperature 85 °F 78 °F 89 °F (2002)
Min Temperature 52 °F 49 °F 43 °F (1998)
Degree Days  
Heating Degree Days 0    
Month to date heating degree days  
Since 1 July heating degree days  
Cooling Degree Days 3    
Month to date cooling degree days  
Year to date cooling degree days  
Growing Degree Days 18 (Base 50)    
Moisture  
Dew Point 27 °F    
Average Humidity 25    
Maximum Humidity 40    
Minimum Humidity 10    
Precipitation  
Precipitation 0.00 in - 0.26 in (2007)
Month to date precipitation 0.01  
Year to date precipitation 0.38  
Sea Level Pressure  
Sea Level Pressure 29.71 in    
Wind  
Wind Speed 7 mph (WNW)    
Max Wind Speed 15 mph    
Max Gust Speed 23 mph    
Visibility 10 miles    
Events      
T = Trace of Precipitation, MM = Missing Value Source: NWS Daily Summary

Daily Weather History Graph

Daily Weather History Graph

Search for Another Location

Airport:

Trip Planner

Search our weather history database for the weather conditions in past years. The results will help you decide how hot, cold, wet, or windy it might be!

Date:

Astronomy

Apr. 29, 2012 Rise Set
Actual Time 6:22 AM MDT 7:50 PM MDT
Civil Twilight 5:56 AM MDT 8:16 PM MDT
Nautical Twilight 5:24 AM MDT 8:48 PM MDT
Astronomical Twilight 4:51 AM MDT 9:21 PM MDT
Moon 1:07 PM MDT (4/29) 1:52 AM MDT (4/29)
Length of Visible Light 14h 20m
Length of Day
13h 27m
First Quarter, 54% of the Moon is Illuminated
Apr 29
First Quarter
May 5
Full
May 12
Last Quarter
May 20
New
May 28
First Quarter

Hourly Weather History & Observations

Time (MDT) Temp. Dew Point Humidity Pressure Visibility Wind Dir Wind Speed Gust Speed Precip Events Conditions
12:53 AM 63.0 °F 30.9 °F 30% 29.67 in 10.0 mi North 8.1 mph - N/A   Clear
1:53 AM 60.1 °F 28.0 °F 30% 29.68 in 10.0 mi NW 6.9 mph - N/A   Clear
2:53 AM 57.9 °F 28.0 °F 32% 29.68 in 10.0 mi NW 8.1 mph - N/A   Clear
3:53 AM 59.0 °F 33.1 °F 38% 29.68 in 10.0 mi North 10.4 mph - N/A   Clear
4:53 AM 57.9 °F 33.1 °F 39% 29.68 in 10.0 mi North 6.9 mph - N/A   Clear
5:53 AM 57.0 °F 33.1 °F 40% 29.71 in 10.0 mi North 5.8 mph - N/A   Clear
6:53 AM 53.1 °F 28.9 °F 40% 29.75 in 10.0 mi NW 4.6 mph - N/A   Clear
7:53 AM 60.1 °F 32.0 °F 35% 29.76 in 10.0 mi Calm Calm - N/A   Clear
8:53 AM 64.9 °F 35.1 °F 33% 29.77 in 10.0 mi NE 10.4 mph - N/A   Clear
9:53 AM 66.0 °F 36.0 °F 33% 29.79 in 10.0 mi East 4.6 mph - N/A   Clear
10:53 AM 70.0 °F 33.1 °F 26% 29.78 in 10.0 mi Calm Calm - N/A   Clear
11:53 AM 73.0 °F 28.9 °F 20% 29.76 in 10.0 mi Variable 3.5 mph - N/A   Clear
12:53 PM 78.1 °F 30.9 °F 18% 29.72 in 10.0 mi South 12.7 mph 17.3 mph N/A   Clear
1:53 PM 79.0 °F 27.0 °F 15% 29.70 in 10.0 mi South 11.5 mph 16.1 mph N/A   Clear
2:53 PM 81.0 °F 25.0 °F 13% 29.68 in 10.0 mi Variable 4.6 mph - N/A   Clear
3:53 PM 82.0 °F 23.0 °F 11% 29.64 in 10.0 mi SSE 8.1 mph - N/A   Clear
4:53 PM 82.9 °F 21.9 °F 11% 29.62 in 10.0 mi Variable 3.5 mph - N/A   Clear
5:53 PM 84.0 °F 17.1 °F 8% 29.62 in 10.0 mi WSW 6.9 mph 19.6 mph N/A   Clear
6:53 PM 82.0 °F 18.0 °F 9% 29.64 in 10.0 mi WSW 13.8 mph 21.9 mph N/A   Clear
7:53 PM 78.1 °F 19.0 °F 11% 29.67 in 10.0 mi WSW 12.7 mph - N/A   Clear
8:53 PM 73.9 °F 21.9 °F 14% 29.70 in 10.0 mi WSW 10.4 mph - N/A   Clear
9:53 PM 72.0 °F 21.0 °F 15% 29.73 in 10.0 mi SW 8.1 mph - N/A   Clear
10:53 PM 66.0 °F 21.0 °F 18% 29.76 in 10.0 mi NW 6.9 mph - N/A   Clear
11:53 PM 69.1 °F 19.9 °F 15% 29.74 in 10.0 mi NW 9.2 mph - N/A   Clear